Starlink 3301

operational
NORAD ID: 50169 Int'l Des: 2021-125 Owner: SPXS Country: US Constellation: starlink
LEOCIRCULAR

About Starlink 3301

Description loading...

Live Position

Loading 3D Globe...

Upcoming Passes

Altitude History

Altitude vs Time

uPlot chart will show altitude changes over time

Two-Line Element Set

1 50169U 21125P 25305.17490779 .00000638 00000-0 58186-4 0 9990
2 50169 53.2153 106.0452 0001111 93.3739 266.7380 15.08835606217204
Epoch: Nov 1, 2025 • Age: 31 hours

Current Status

Altitude 539.7 km
Velocity 7.60 km/s
Sub-Earth Point 18.73°N, 57.28°E
Launch Date Dec 18, 2021
Age 3.8 years
Type internet

Technical Details

Classification Payload
Mass 290.00 kg
Dry Mass 270.00 kg
Total Mass 290.00 kg
Length 0.20 m
Diameter 2.80 m
Span 9.00 m
Shape Box + pan
Manufacturer SPXS
Bus Type Starlink
Phase Status In Orbit
Owner/State SPXS/US

Large Constellations

Loading constellations...